Regional Weather Roundup
Issued by NWS Boston, MA

Home | Current Version | Previous Version | Text Only | Print | Product List | Glossary On
Versions: 1 2 3 4 5 6 7 8 9 10 11 12 13 14 15 16 17 18 19 20 21 22 23 24 25 26 27
000
ASUS41 KBOX 221510
RWRBOX

REGIONAL WEATHER ROUNDUP
NATIONAL WEATHER SERVICE TAUNTON MA
1000 AM EST SUN JAN 22 2017

NOTE:  "FAIR" INDICATES FEW OR NO CLOUDS BELOW 12,000 FEET WITH NO
SIGNIFICANT WEATHER AND/OR OBSTRUCTIONS TO VISIBILITY.

MAZALL-221600-
EASTERN MASSACHUSETTS

CITY           SKY/WX    TMP DP  RH WIND       PRES   REMARKS
BOSTON         PTSUNNY   44  40  85 NE7       29.82R
BEVERLY        CLOUDY    44  41  89 N6        29.82R
LAWRENCE       CLOUDY    42  39  89 NE7       29.83R
BEDFORD        CLOUDY    41  38  89 W3        29.81R
BLUE HILL        N/A     43  39  86 NE9       29.78S
NORWOOD        CLOUDY    45  42  89 CALM      29.81R
MARSHFIELD     CLOUDY    46  43  87 VRB6      29.80R
PLYMOUTH       CLOUDY    46  43  89 N6        29.79S
TAUNTON        CLOUDY    42  40  92 CALM      29.78F FOG
NEW BEDFORD    CLOUDY    47  43  86 CALM      29.78S
$$

MAZALL-221600-
CAPE COD AND THE ISLANDS

CITY           SKY/WX    TMP DP  RH WIND       PRES   REMARKS
FALMOUTH       MOSUNNY   43  41  93 MISG      29.78
HYANNIS        PTSUNNY   48  43  82 NE8       29.77F
CHATHAM        MOSUNNY   50  43  77 NE6       29.80S
PROVINCETOWN   CLOUDY    44  42  93 NW6       29.81R
NANTUCKET      MOSUNNY   43  42  97 SE3       29.79S
MARTHAS VNYRD  PTSUNNY   48  45  89 CALM      29.78S
$$

MAZALL-221600-
CENTRAL AND WESTERN MASSACHUSETTS

CITY           SKY/WX    TMP DP  RH WIND       PRES   REMARKS
WORCESTER      CLOUDY    42  37  82 NE8       29.77F
FITCHBURG      CLOUDY    42  39  89 CALM      29.82R
ORANGE         LGT RAIN  34  34 100 CALM      29.79S FOG
SPRINGFIELD    CLOUDY    40  40  99 N5        29.77R
WESTFIELD      CLOUDY    38  38 100 N8        29.78R FOG
NORTH ADAMS    CLOUDY    38  36  92 CALM      29.75S FOG
PITTSFIELD     CLOUDY    39  38  96 CALM      29.73R FOG
$$

RIZALL-221600-
RHODE ISLAND

CITY           SKY/WX    TMP DP  RH WIND       PRES   REMARKS
PROVIDENCE     CLOUDY    43  40  89 CALM      29.80R FOG
NEWPORT        CLOUDY    49  45  86 NE10      29.77F
SMITHFIELD     CLOUDY    43  42  97 CALM      29.79S
WESTERLY       FOG       42  39  89 SE5       29.78R VSB 3/4
$$

CTZALL-221600-
CONNECTICUT

CITY           SKY/WX    TMP DP  RH WIND       PRES   REMARKS
BRADLEY INTL   CLOUDY    42  41  96 N7        29.78S FOG
HARTFORD       CLOUDY    42  41  96 N3        29.78R FOG
BRIDGEPORT     FOG       42  40  92 NE9       29.76R VSB 1/4
DANBURY        SUNNY     46  41  82 N3        29.76R
GROTON         PTSUNNY   43  41  93 SE6       29.77S
NEW HAVEN      FOG       42  42 100 CALM      29.77R VSB 1/2
CHESTER        FAIR      45  45 100 E5        29.76R
MERIDEN        MOSUNNY   47  42  83 N6        29.77R HAZE
WILLIMANTIC    CLOUDY    43  41  93 CALM      29.77F FOG
OXFORD         PTSUNNY   45  39  81 E7        29.76R
$$

MEZ002-015-021-024-NHZ003-005-008-011-012-014-VTZ005-008-221600-
NORTHERN NEW ENGLAND

CITY           SKY/WX    TMP DP  RH WIND       PRES   REMARKS
PORTLAND ME    CLOUDY    36  30  79 NE13      29.88R WCI  27
BANGOR ME      CLOUDY    34  30  85 N3        29.89S
CONCORD NH     CLOUDY    40  34  79 E7        29.82R
MANCHESTER NH  NOT AVBL
NASHUA NH      NOT AVBL
PORTSMOUTH NH  CLOUDY    40  37  91 NE15G22   29.82R WCI  31
JAFFREY NH     NOT AVBL
KEENE NH       NOT AVBL
BURLINGTON VT  CLOUDY    34  33  96 NW7       29.82F FOG     WCI  28
MT. WASHINGTON NOT AVBL
$$

NYZ052-076-221600-
EASTERN NEW YORK

CITY           SKY/WX    TMP DP  RH WIND       PRES   REMARKS
ALBANY         CLOUDY    41  38  89 N6        29.76S FOG
NEW YORK CITY  FOG       45  44  97 NE8       29.75R VSB<1/4
$$

ANZALL-221600-
MARINE OBSERVATIONS

STATION/POSITION TIME  TEMP    WIND        PRES    VSBY  WAVE
                       AIR SEA DIR/SP/G                  HT/PER
                 (UTC) (F)     (DEG/KT/KT) (MB)    (MI)  (FT/S)
BOSTON BUOY      1350   44 45   30/  6/  8 1008.0          4/11
BUZZARDS BAY     1400   39      40/  6/  7 1008.9S
NANTUCKET SOUND  1350   40 42   CALM  /  2 1008.6          1/13
MASS BAY-STELLWA 1404   44 44   10/  6/  8 1008.6R  1 7/8  3/11
ISLE OF SHOALS   1400   42      40/ 16/ 18 1009.1R
S OF BLOCK IS    1455      47                N/A           3/13
$$

......................KEY.........................
  SKY/WX - SKY CONDITION/PRESENT WEATHER
  TMP    - TEMPERATURE IN FAHRENHEIT
  DWPT   - DEWPOINT IN FAHRENHEIT
  RH     - RELATIVE HUMIDITY IN PERCENT
  WIND   - DIRECTION AND SPEED IN MPH
  PRES   - MEAN SEA LEVEL PRESSURE IN INCHES OF HG
  WCI    - WIND CHILL INDEX
  VSB    - VISIBILITY IN MILES
  HX     - HEAT INDEX
  TC     - TEMPERATURE IN CELSIUS
  VRB    - VARIABLE WIND DIRECTION
  N/A    - NOT AVAILABLE




USA.gov is the U.S. government's official web portal to all federal, state and local government web resources and services.